FW0177 Weather Reports


Display with metric or nautical units.
time (UTC)temp
F
wind
direction
speed
MPH
gust
MPH
rain 1hr
in
rain 24hr
in
rain mn
in
humidity
%
barometer
mb
20180622125718 77 255 5.0 9.0 0.00 0.00 0.00 93 1012.5
20180622125227 77 252 4.0 9.0 0.00 0.00 0.00 94 1012.4
20180622124722 77 210 4.0 11.0 0.00 0.00 0.00 94 1012.4
20180622124214 76 180 5.0 11.0 0.00 0.00 0.00 94 1012.4
20180622123725 76 246 5.0 8.0 0.00 0.00 0.00 94 1012.5
20180622123216 76 190 2.0 10.0 0.00 0.00 0.00 95 1012.5
20180622122727 76 199 3.0 10.0 0.00 0.00 0.00 95 1012.5
20180622122218 76 190 3.0 7.0 0.00 0.00 0.00 95 1012.5
20180622121730 76 206 3.0 7.0 0.00 0.00 0.00 96 1012.5
20180622121221 76 212 4.0 8.0 0.00 0.00 0.00 95 1012.5
20180622120717 75 195 4.0 10.0 0.00 0.00 0.00 96 1012.4
20180622120229 75 192 5.0 10.0 0.00 0.00 0.00 96 1012.3
20180622115721 75 244 3.0 8.0 0.00 0.00 0.00 96 1012.3
20180622115232 75 217 4.0 8.0 0.00 0.00 0.00 96 1012.3
20180622114725 75 198 4.0 8.0 0.00 0.00 0.00 96 1012.2
20180622114216 75 243 4.0 8.0 0.00 0.00 0.00 96 1012.3
20180622113728 75 209 5.0 10.0 0.00 0.00 0.00 96 1012.3
20180622113220 75 203 4.0 10.0 0.00 0.00 0.00 96 1012.3
20180622112715 75 209 5.0 7.0 0.00 0.00 0.00 96 1012.3
20180622112226 75 175 4.0 8.0 0.00 0.00 0.00 96 1012.3
20180622111718 75 220 5.0 8.0 0.00 0.00 0.00 96 1012.4
20180622111229 75 202 4.0 7.0 0.00 0.00 0.00 96 1012.4
20180622110721 75 201 4.0 7.0 0.00 0.00 0.00 96 1012.5
20180622110233 75 211 3.0 6.0 0.00 0.00 0.00 97 1012.4
20180622105724 75 221 3.0 6.0 0.00 0.00 0.00 97 1012.4
20180622105217 75 189 3.0 8.0 0.00 0.00 0.00 97 1012.4
20180622104732 74 227 4.0 8.0 0.00 0.00 0.00 97 1012.3
20180622104224 74 230 5.0 8.0 0.00 0.00 0.00 97 1012.3
20180622103715 74 212 3.0 10.0 0.00 0.00 0.00 97 1012.2
20180622103232 74 223 5.0 9.0 0.00 0.00 0.00 97 1012.3
20180622102719 74 210 3.0 8.0 0.00 0.00 0.00 97 1012.3
20180622102230 74 189 3.0 8.0 0.00 0.00 0.00 97 1012.3
20180622101722 74 204 4.0 7.0 0.00 0.00 0.00 97 1012.2
20180622101232 74 226 1.0 4.0 0.00 0.00 0.00 97 1012.2
20180622100729 74 236 2.0 6.0 0.00 0.00 0.00 97 1012.1
20180622100220 74 212 3.0 6.0 0.00 0.00 0.00 97 1012.0
20180622095731 74 213 2.0 5.0 0.00 0.00 0.00 97 1012.0
20180622095223 74 222 2.0 5.0 0.00 0.00 0.00 97 1011.9
20180622094714 74 231 2.0 5.0 0.00 0.00 0.00 97 1011.9
20180622094225 74 212 2.0 5.0 0.00 0.00 0.00 97 1011.9
20180622093716 74 202 2.0 6.0 0.00 0.00 0.00 97 1011.9
20180622093228 74 218 3.0 6.0 0.00 0.00 0.00 97 1011.8
20180622092723 74 222 3.0 8.0 0.00 0.00 0.00 97 1011.8
20180622092214 74 219 4.0 8.0 0.00 0.00 0.00 97 1011.8
20180622091726 74 257 3.0 8.0 0.00 0.00 0.00 97 1011.7
20180622091217 74 220 3.0 7.0 0.00 0.00 0.00 97 1011.6
20180622090730 74 209 3.0 7.0 0.00 0.00 0.00 97 1011.5
20180622090217 74 208 3.0 7.0 0.00 0.00 0.00 97 1011.3
20180622085729 73 235 3.0 7.0 0.00 0.00 0.00 97 1011.3
20180622085220 73 185 2.0 6.0 0.00 0.00 0.00 97 1011.2
20180622084715 73 227 3.0 6.0 0.00 0.00 0.00 97 1011.2
20180622084226 73 200 3.0 4.0 0.00 0.00 0.00 97 1011.2
20180622083717 73 185 2.0 5.0 0.00 0.00 0.00 97 1011.2
20180622083232 73 203 1.0 5.0 0.00 0.00 0.00 97 1011.2
20180622082721 73 198 2.0 5.0 0.00 0.00 0.00 97 1011.1
20180622082233 73 242 1.0 5.0 0.00 0.00 0.00 97 1011.1
20180622081724 73 173 1.0 5.0 0.00 0.00 0.00 97 1011.1
20180622081216 73 228 0.0 5.0 0.00 0.00 0.00 97 1011.0
20180622080728 73 206 3.0 5.0 0.00 0.00 0.00 97 1011.0
20180622080223 73 255 2.0 7.0 0.00 0.00 0.00 97 1010.9
20180622075714 73 250 4.0 7.0 0.00 0.00 0.00 97 1010.8
20180622075225 73 251 4.0 5.0 0.00 0.00 0.00 97 1010.8
20180622074717 73 227 2.0 7.0 0.00 0.00 0.00 97 1010.8
20180622074229 73 225 2.0 7.0 0.00 0.00 0.00 97 1010.7
20180622073721 73 209 3.0 6.0 0.00 0.00 0.00 97 1010.8
20180622073232 73 215 2.0 5.0 0.00 0.00 0.00 97 1010.8
20180622072723 73 231 2.0 6.0 0.00 0.00 0.00 96 1010.7
20180622072219 73 239 3.0 6.0 0.00 0.00 0.00 96 1010.7
20180622071730 73 252 2.0 7.0 0.00 0.00 0.00 96 1010.7
20180622071222 73 197 3.0 6.0 0.00 0.00 0.00 96 1010.8
20180622070733 73 218 3.0 8.0 0.00 0.00 0.00 96 1010.8
20180622070224 73 209 2.0 8.0 0.00 0.00 0.00 96 1010.8
20180622065715 73 238 5.0 7.0 0.00 0.00 0.00 96 1010.8
20180622065229 73 181 3.0 6.0 0.00 0.00 0.00 96 1010.8
20180622064720 73 188 2.0 6.0 0.00 0.00 0.00 96 1010.8
20180622064215 73 228 4.0 7.0 0.00 0.00 0.00 96 1010.7
20180622063727 73 197 4.0 7.0 0.00 0.00 0.00 96 1010.7
20180622063218 73 267 3.0 6.0 0.00 0.00 0.00 96 1010.8
20180622062730 73 208 3.0 8.0 0.00 0.00 0.00 96 1010.8
20180622062222 73 213 2.0 8.0 0.00 0.00 0.00 95 1010.9
20180622061713 73 196 4.0 7.0 0.00 0.00 0.00 95 1010.9
20180622061225 73 198 4.0 8.0 0.00 0.00 0.00 95 1011.0
20180622060717 73 201 5.0 8.0 0.00 0.00 0.00 95 1011.0
20180622060232 73 209 4.0 8.0 0.00 0.00 0.00 95 1011.0
20180622055723 73 209 4.0 8.0 0.00 0.00 0.00 95 1011.1
20180622055214 73 230 4.0 8.0 0.00 0.00 0.00 95 1011.1
20180622054726 73 220 2.0 7.0 0.00 0.00 0.00 95 1011.1
20180622054217 73 196 4.0 7.0 0.00 0.00 0.00 95 1011.1
20180622053728 73 151 3.0 7.0 0.00 0.00 0.00 95 1011.3
20180622053219 73 213 3.0 7.0 0.00 0.00 0.00 95 1011.3
20180622052731 73 193 2.0 5.0 0.00 0.00 0.00 95 1011.4
20180622052227 73 205 3.0 5.0 0.00 0.00 0.00 95 1011.4
20180622051718 73 206 3.0 4.0 0.00 0.00 0.00 95 1011.5
20180622051231 73 193 1.0 4.0 0.00 0.00 0.00 95 1011.5
20180622050722 73 209 1.0 4.0 0.00 0.00 0.00 95 1011.6
20180622050233 73 203 2.0 6.0 0.00 0.00 0.00 95 1011.6
20180622045724 73 192 2.0 6.0 0.00 0.00 0.00 95 1011.6
20180622045216 73 206 2.0 5.0 0.00 0.00 0.00 95 1011.5
20180622044727 73 195 2.0 7.0 0.00 0.00 0.00 95 1011.6
20180622044224 73 190 3.0 5.0 0.00 0.00 0.00 95 1011.6
20180622043715 73 190 3.0 5.0 0.00 0.00 0.00 95 1011.7
20180622043225 74 190 4.0 5.0 0.00 0.00 0.00 95 1011.7
20180622042716 74 201 2.0 5.0 0.00 0.00 0.00 95 1011.7
20180622042229 74 197 2.0 4.0 0.00 0.00 0.00 95 1011.7
20180622041720 74 203 1.0 4.0 0.00 0.00 0.00 95 1011.6
20180622041231 74 203 2.0 4.0 0.00 0.00 0.00 95 1011.7
20180622040722 74 188 0.0 3.0 0.00 0.00 0.00 95 1011.8
20180622040218 74 187 1.0 7.0 0.00 0.00 0.00 95 1011.8
20180622035730 74 182 3.0 7.0 0.00 0.00 0.00 95 1011.7
20180622035221 74 183 1.0 5.0 0.00 0.00 0.00 95 1011.6
20180622034730 74 191 2.0 5.0 0.00 0.00 0.00 94 1011.7
20180622034221 74 198 0.0 4.0 0.00 0.00 0.00 94 1011.7
20180622033733 74 198 0.0 4.0 0.00 0.00 0.00 94 1011.8
20180622033224 74 197 1.0 5.0 0.00 0.00 0.00 94 1011.8
20180622032715 74 198 3.0 5.0 0.00 0.00 0.00 94 1011.8
20180622032227 74 199 2.0 4.0 0.00 0.00 0.00 94 1011.8
20180622031722 74 194 1.0 3.0 0.00 0.00 0.00 94 1011.8
20180622031213 74 194 1.0 5.0 0.00 0.00 0.00 94 1011.7
20180622030725 74 194 3.0 5.0 0.00 0.00 0.00 94 1011.7
20180622030216 74 201 3.0 4.0 0.00 0.00 0.00 94 1011.7
20180622025727 74 191 3.0 5.0 0.00 0.00 0.00 94 1011.8
20180622025219 74 202 2.0 4.0 0.00 0.00 0.00 94 1011.7
20180622024732 74 187 2.0 6.0 0.00 0.00 0.00 94 1011.6
20180622024223 74 199 3.0 6.0 0.00 0.00 0.00 94 1011.5
20180622023717 74 210 2.0 6.0 0.00 0.00 0.00 94 1011.6
20180622023230 74 202 3.0 7.0 0.00 0.00 0.00 93 1011.6
20180622022721 74 211 3.0 6.0 0.00 0.00 0.00 93 1011.5
20180622022214 75 196 3.0 5.0 0.00 0.00 0.00 93 1011.4
20180622021725 75 194 2.0 6.0 0.00 0.00 0.00 93 1011.6
20180622021217 75 209 3.0 7.0 0.00 0.00 0.00 93 1011.6
20180622020728 75 218 3.0 7.0 0.00 0.00 0.00 92 1011.6
20180622020220 75 184 2.0 10.0 0.00 0.00 0.00 92 1011.5
20180622015715 75 194 6.0 10.0 0.00 0.00 0.00 92 1011.5
20180622015247 75 228 5.0 12.0 0.00 0.00 0.00 91 1011.5
20180622014718 75 205 5.0 12.0 0.00 0.00 0.00 91 1011.4
20180622014229 75 217 5.0 11.0 0.00 0.00 0.00 90 1011.5
20180622013721 75 192 6.0 8.0 0.00 0.00 0.00 90 1011.5
20180622013232 76 186 4.0 10.0 0.00 0.00 0.00 90 1011.5
20180622012723 76 180 6.0 10.0 0.00 0.00 0.00 89 1011.4
20180622012214 76 214 4.0 11.0 0.00 0.00 0.00 88 1011.3
20180622011726 76 227 7.0 11.0 0.00 0.00 0.00 87 1011.3
20180622011221 77 216 5.0 12.0 0.00 0.00 0.00 87 1011.3
20180622010733 77 195 5.0 9.0 0.00 0.00 0.00 86 1011.2
20180622010224 77 204 5.0 8.0 0.00 0.00 0.00 85 1011.2
20180622005716 77 211 4.0 7.0 0.00 0.00 0.00 85 1011.1
20180622005227 78 214 4.0 9.0 0.00 0.00 0.00 84 1011.1
20180622004718 78 248 6.0 9.0 0.00 0.00 0.00 83 1011.0
20180622004230 78 192 4.0 9.0 0.00 0.00 0.00 83 1011.0
20180622003723 78 231 3.0 9.0 0.00 0.00 0.00 83 1010.9
20180622003218 79 224 4.0 8.0 0.00 0.00 0.00 82 1010.8
20180622002729 79 253 3.0 6.0 0.00 0.00 0.00 82 1010.7
20180622002220 79 211 2.0 7.0 0.00 0.00 0.00 81 1010.8
20180622001732 79 241 4.0 7.0 0.00 0.00 0.00 81 1010.8
20180622001223 79 185 3.0 7.0 0.00 0.00 0.00 81 1010.8
20180622000715 79 205 5.0 7.0 0.00 0.00 0.00 80 1010.9
20180622000227 79 200 3.0 6.0 0.00 0.00 0.00 81 1010.9
20180621235719 79 225 2.0 6.0 0.00 0.00 0.00 81 1010.9
20180621235214 79 229 2.0 5.0 0.00 0.00 0.00 82 1011.0
20180621234725 79 236 3.0 8.0 0.00 0.00 0.00 81 1010.9
20180621234216 79 211 2.0 10.0 0.00 0.00 0.00 82 1010.9
20180621233727 79 226 3.0 9.0 0.00 0.00 0.00 82 1010.9
20180621233218 79 195 2.0 7.0 0.00 0.00 0.00 82 1011.0
20180621232730 79 210 2.0 6.0 0.00 0.00 0.00 83 1011.1
20180621232223 78 188 3.0 10.0 0.00 0.00 0.00 84 1011.2
20180621231714 78 249 2.0 10.0 0.00 0.00 0.00 84 1011.3
20180621231229 78 225 3.0 8.0 0.00 0.00 0.00 84 1011.4
20180621230720 78 192 4.0 8.0 0.00 0.00 0.00 84 1011.4
20180621230232 78 208 3.0 10.0 0.00 0.00 0.00 85 1011.5
20180621225723 78 224 5.0 10.0 0.00 0.00 0.00 84 1011.6
20180621225215 78 224 4.0 8.0 0.00 0.00 0.00 85 1011.5
20180621224726 78 191 4.0 8.0 0.00 0.00 0.00 85 1011.5
20180621224217 78 205 4.0 7.0 0.00 0.00 0.00 85 1011.5
20180621223728 78 191 5.0 10.0 0.00 0.00 0.00 86 1011.6
20180621223224 78 193 6.0 10.0 0.00 0.00 0.00 85 1011.5
20180621222715 78 210 4.0 11.0 0.00 0.00 0.00 86 1011.6
20180621222228 77 229 5.0 11.0 0.00 0.00 0.00 87 1011.6
20180621221719 77 207 3.0 8.0 0.00 0.00 0.00 87 1011.6
20180621221231 77 218 4.0 8.0 0.00 0.00 0.00 88 1011.6
20180621220721 77 198 4.0 8.0 0.00 0.00 0.00 88 1011.5
20180621220232 77 234 4.0 6.0 0.00 0.00 0.00 88 1011.6
20180621215723 77 250 2.0 4.0 0.00 0.00 0.00 88 1011.5
20180621215220 77 251 2.0 4.0 0.00 0.00 0.00 88 1011.4
20180621214731 77 290 2.0 7.0 0.00 0.00 0.00 88 1011.4
20180621214222 77 303 3.0 7.0 0.00 0.00 0.00 88 1011.6
20180621213714 77 306 2.0 9.0 0.00 0.00 0.00 88 1011.5
20180621213226 77 309 3.0 9.0 0.00 0.00 0.00 87 1011.6
20180621212716 78 302 5.0 11.0 0.00 0.00 0.00 86 1011.7
20180621212227 78 279 5.0 14.0 0.00 0.00 0.00 84 1011.7
20180621211719 79 314 6.0 14.0 0.00 0.00 0.00 83 1011.7
20180621211214 79 248 6.0 11.0 0.00 0.00 0.00 80 1011.6
20180621210726 80 360 6.0 12.0 0.00 0.00 0.00 78 1011.6
20180621210217 81 5 5.0 14.0 0.00 0.00 0.00 77 1011.4
20180621205728 82 297 7.0 15.0 0.00 0.00 0.00 75 1011.4
20180621205220 83 301 10.0 15.0 0.00 0.00 0.00 75 1011.2
20180621204732 84 323 4.0 15.0 0.00 0.00 0.00 78 1011.1
20180621204223 85 295 4.0 5.0 0.00 0.00 0.00 77 1011.0
20180621203714 85 305 2.0 4.0 0.00 0.00 0.00 76 1011.0
20180621203226 85 288 3.0 5.0 0.00 0.00 0.00 75 1011.0
20180621202721 86 290 2.0 6.0 0.00 0.00 0.00 74 1011.0
20180621202233 86 281 2.0 6.0 0.00 0.00 0.00 73 1011.0
20180621201724 86 281 3.0 6.0 0.00 0.00 0.00 72 1011.1
20180621201215 87 254 1.0 4.0 0.00 0.00 0.00 71 1011.1
20180621200727 87 238 2.0 7.0 0.00 0.00 0.00 70 1011.1
20180621200218 87 316 3.0 9.0 0.00 0.00 0.00 69 1011.1
20180621195730 87 242 2.0 9.0 0.00 0.00 0.00 68 1011.1
20180621195222 87 240 4.0 9.0 0.00 0.00 0.00 66 1011.1
20180621194717 88 222 4.0 10.0 0.00 0.00 0.00 68 1011.1
20180621194229 88 210 5.0 9.0 0.00 0.00 0.00 69 1011.2
20180621193720 88 217 6.0 10.0 0.00 0.00 0.00 69 1011.2
20180621193232 88 180 2.0 10.0 0.00 0.00 0.00 71 1011.3
20180621192723 87 241 3.0 10.0 0.00 0.00 0.00 71 1011.4
20180621192214 87 179 3.0 8.0 0.00 0.00 0.00 71 1011.4
20180621191727 87 221 4.0 8.0 0.00 0.00 0.00 71 1011.5
20180621191218 87 244 2.0 10.0 0.00 0.00 0.00 70 1011.4
20180621190713 87 228 5.0 11.0 0.00 0.00 0.00 68 1011.4
20180621190225 87 228 6.0 11.0 0.00 0.00 0.00 68 1011.4
20180621185716 87 200 5.0 10.0 0.00 0.00 0.00 65 1011.3
20180621185227 88 219 4.0 10.0 0.00 0.00 0.00 65 1011.3
20180621184719 88 180 5.0 12.0 0.00 0.00 0.00 68 1011.4
20180621184231 88 196 5.0 12.0 0.00 0.00 0.00 67 1011.3
20180621183722 88 324 6.0 11.0 0.00 0.00 0.00 67 1011.3
20180621183214 88 174 4.0 10.0 0.00 0.00 0.00 73 1011.3
20180621182730 88 201 7.0 11.0 0.00 0.00 0.00 69 1011.4
20180621182220 87 250 5.0 10.0 0.00 0.00 0.00 69 1011.5
20180621181733 87 286 5.0 10.0 0.00 0.00 0.00 73 1011.6
20180621181224 87 235 6.0 10.0 0.00 0.00 0.00 72 1011.6
20180621180715 87 207 5.0 11.0 0.00 0.00 0.00 71 1011.6
20180621180226 87 234 6.0 11.0 0.00 0.00 0.00 71 1011.6
20180621175718 86 219 4.0 6.0 0.00 0.00 0.00 74 1011.7
20180621175230 85 216 2.0 7.0 0.00 0.00 0.00 75 1011.7
20180621174725 85 278 3.0 7.0 0.00 0.00 0.00 76 1011.7
20180621174217 86 277 3.0 5.0 0.00 0.00 0.00 77 1011.9
20180621173728 86 295 2.0 8.0 0.00 0.00 0.00 77 1012.0
20180621173219 85 264 3.0 7.0 0.00 0.00 0.00 81 1012.1
20180621172731 85 188 3.0 5.0 0.00 0.00 0.00 80 1012.2
20180621172223 84 245 2.0 7.0 0.00 0.00 0.00 84 1012.2
20180621171714 84 215 4.0 9.0 0.00 0.00 0.00 81 1012.4
20180621171225 84 264 6.0 9.0 0.00 0.00 0.00 81 1012.4
20180621170721 84 209 5.0 8.0 0.00 0.00 0.00 85 1012.5
20180621170231 83 221 5.0 8.0 0.00 0.00 0.00 85 1012.6
20180621165722 82 206 4.0 6.0 0.00 0.00 0.00 87 1012.7
20180621165214 82 206 3.0 5.0 0.00 0.00 0.00 87 1012.8
20180621164726 82 132 1.0 2.0 0.00 0.00 0.00 88 1012.7
20180621164217 82 229 0.0 3.0 0.00 0.00 0.00 90 1012.7
20180621163728 81 96 1.0 2.0 0.00 0.00 0.00 92 1012.8
20180621163220 81 164 0.0 3.0 0.00 0.00 0.00 88 1012.9
20180621162715 81 167 0.0 7.0 0.00 0.00 0.00 86 1012.9
20180621162226 82 198 4.0 7.0 0.00 0.00 0.00 83 1013.1
20180621161717 83 196 2.0 8.0 0.00 0.00 0.00 80 1013.1
20180621161229 84 173 2.0 8.0 0.00 0.00 0.00 78 1013.1
20180621160720 84 208 3.0 5.0 0.00 0.00 0.00 77 1012.9
20180621160231 84 196 3.0 8.0 0.00 0.00 0.00 76 1013.1
20180621155715 84 279 2.0 8.0 0.00 0.00 0.00 75 1013.2
20180621155227 85 232 2.0 9.0 0.00 0.00 0.00 74 1013.1
20180621154720 85 278 5.0 9.0 0.00 0.00 0.00 73 1013.1
20180621154215 86 327 5.0 9.0 0.00 0.00 0.00 74 1013.2
20180621153726 85 244 2.0 6.0 0.00 0.00 0.00 79 1013.2
20180621153218 84 229 4.0 6.0 0.00 0.00 0.00 79 1013.2
20180621152729 84 290 2.0 9.0 0.00 0.00 0.00 80 1013.2
20180621152222 84 236 4.0 11.0 0.00 0.00 0.00 79 1013.2
20180621151733 84 309 4.0 11.0 0.00 0.00 0.00 77 1013.1
20180621151224 84 258 2.0 8.0 0.00 0.00 0.00 78 1013.1
20180621150715 84 246 2.0 6.0 0.00 0.00 0.00 77 1013.0
20180621150232 84 298 3.0 7.0 0.00 0.00 0.00 78 1013.1
20180621145723 84 302 3.0 7.0 0.00 0.00 0.00 78 1013.1
20180621145215 84 301 3.0 7.0 0.00 0.00 0.00 77 1013.1
20180621144727 84 271 4.0 10.0 0.00 0.00 0.00 78 1013.1
20180621144218 84 229 4.0 10.0 0.00 0.00 0.00 79 1013.1
20180621143730 84 221 5.0 8.0 0.00 0.00 0.00 79 1013.2
20180621143221 83 227 2.0 9.0 0.00 0.00 0.00 80 1013.2
20180621142732 83 273 4.0 9.0 0.00 0.00 0.00 80 1013.3
20180621142228 83 254 3.0 5.0 0.00 0.00 0.00 81 1013.3
20180621141719 82 315 3.0 7.0 0.00 0.00 0.00 82 1013.3
20180621141231 82 244 3.0 9.0 0.00 0.00 0.00 82 1013.3
20180621140722 82 213 3.0 9.0 0.00 0.00 0.00 84 1013.4
20180621140214 82 227 5.0 9.0 0.00 0.00 0.00 84 1013.4
20180621135725 81 275 2.0 7.0 0.00 0.00 0.00 86 1013.4
20180621135217 81 221 3.0 8.0 0.00 0.00 0.00 87 1013.5
20180621134728 80 260 2.0 8.0 0.00 0.00 0.00 88 1013.6
20180621134223 80 225 3.0 6.0 0.00 0.00 0.00 88 1013.6
20180621133715 80 255 1.0 7.0 0.00 0.00 0.00 89 1013.6
20180621133226 79 286 4.0 7.0 0.00 0.00 0.00 89 1013.6
20180621132718 79 213 3.0 6.0 0.00 0.00 0.00 89 1013.7
20180621132230 79 236 1.0 7.0 0.00 0.00 0.00 90 1013.7
20180621131721 79 236 2.0 8.0 0.00 0.00 0.00 90 1013.7
20180621131233 79 235 3.0 6.0 0.00 0.00 0.00 89 1013.7
20180621130724 79 231 3.0 8.0 0.00 0.00 0.00 89 1013.7
20180621130219 79 207 2.0 8.0 0.00 0.00 0.00 90 1013.5